Theta_e
329 328 332 340 340 339 339 337 336 336 338 339 336 335 336 337 336 337 337 336 336 335 334 333 332 333 334 334 334 335 334 334 332 329 328 329 325 326 329 329 329 331 331 330 327 322 319 316 318 324 326 327 328 331 334 335 335 334 332 331 331 332 333
332 330 334 341 339 339 336 336 335 337 340 337 336 336 335 334 335 335 335 335 334 333 332 332 332 332 332 332 332 333 332 332 333 332 330 328 328 326 326 326 327 327 327 326 327 325 320 317 316 318 319 324 326 328 331 335 335 336 334 333 334 332 332
329 332 339 338 338 337 335 337 335 337 337 336 338 335 334 333 334 333 333 333 333 332 332 331 331 331 332 332 333 333 332 332 331 331 330 329 329 329 328 327 324 324 323 323 323 323 322 322 317 317 319 319 318 322 327 329 333 334 336 333 332 333 332
333 336 336 336 336 336 333 333 334 333 334 335 338 334 333 332 333 333 333 332 332 331 330 330 330 330 331 332 333 333 332 331 330 330 329 329 329 328 327 326 324 324 322 320 321 322 321 319 318 318 319 321 320 320 323 327 330 333 335 334 331 331 329
334 336 335 332 333 332 334 333 332 332 332 334 333 331 330 331 332 332 331 330 330 329 329 330 331 331 331 332 332 331 330 330 330 329 328 327 325 325 325 324 323 324 324 323 323 323 323 322 320 318 319 321 321 321 324 325 330 333 333 331 332 331 331
336 334 332 333 334 335 331 329 330 329 331 330 329 328 328 329 330 329 329 328 328 329 329 329 329 330 331 332 330 327 327 327 327 325 324 324 323 323 323 324 323 324 323 323 323 322 323 323 322 318 320 321 317 319 322 323 325 329 331 331 332 333 333
334 334 334 335 331 330 330 329 329 329 329 328 327 327 328 328 329 328 328 328 328 328 328 328 329 330 330 329 327 326 326 327 327 324 324 324 323 323 324 322 321 322 322 323 323 323 322 321 319 318 318 319 320 319 321 321 324 325 328 333 333 333 332
333 331 330 330 331 329 328 328 328 329 328 326 326 328 328 329 328 328 327 327 327 328 328 328 329 328 327 327 326 326 326 327 325 324 323 324 322 322 322 321 321 321 321 321 322 322 322 321 321 320 319 315 316 319 318 320 320 321 323 325 329 329 330
330 330 329 329 330 330 328 327 327 327 327 326 328 329 328 327 327 327 327 327 328 329 329 328 327 326 326 325 324 324 323 325 323 322 321 322 321 321 321 320 320 319 320 321 321 322 322 322 321 321 321 319 314 312 316 316 318 319 324 323 326 328 329
329 328 328 328 328 328 328 327 326 326 327 328 327 328 327 327 329 330 328 329 328 328 326 326 326 325 325 324 323 322 321 322 322 321 320 320 320 320 319 319 318 318 318 320 320 321 321 321 321 321 321 319 318 314 312 312 315 317 320 324 320 324 327
327 327 327 327 327 327 327 326 326 325 325 326 328 328 328 327 328 328 329 327 326 325 324 324 325 324 323 322 322 321 322 322 321 321 320 319 318 318 318 318 317 317 318 318 318 319 319 320 320 321 320 320 320 317 316 313 314 319 318 322 321 319 322
328 327 327 327 327 325 324 324 323 325 326 327 326 327 327 326 328 328 328 325 324 323 323 322 323 322 322 321 321 321 321 321 319 319 319 318 318 317 316 315 316 315 316 317 317 317 318 319 320 320 319 320 319 320 317 316 312 317 320 315 317 319 318
325 325 325 325 324 323 323 323 323 324 325 326 328 328 329 324 324 325 326 323 323 321 321 321 321 321 321 320 321 320 320 319 318 317 317 317 316 315 314 313 313 314 315 315 315 315 315 316 319 319 319 319 319 319 317 315 314 313 320 317 317 317 319
325 324 324 323 323 323 323 322 323 324 324 328 329 328 324 322 323 324 321 321 320 320 319 320 321 321 320 320 320 320 319 318 317 317 316 315 314 314 313 312 312 312 312 311 312 313 313 313 314 315 317 317 317 317 315 313 311 312 314 317 316 315 316
323 323 323 323 322 322 322 322 323 324 325 325 327 327 322 327 321 321 320 319 319 319 319 319 320 320 319 319 320 321 319 317 316 315 315 313 313 313 312 310 310 311 311 310 310 310 310 310 310 311 312 314 314 316 317 312 310 310 308 312 312 313 312
322 322 322 321 321 321 321 322 322 324 326 326 325 324 325 320 322 320 319 319 319 319 319 319 319 318 318 317 317 317 318 317 315 314 313 312 312 312 311 310 309 310 311 309 309 309 309 307 307 307 309 311 312 313 314 314 311 307 307 308 311 309 309
322 321 320 320 320 321 322 322 322 322 324 326 321 320 320 320 319 319 318 317 316 316 316 316 317 318 317 316 316 315 315 315 315 314 313 312 311 311 310 310 309 309 309 308 308 308 308 307 305 305 306 308 309 310 312 311 312 308 306 305 306 307 308
320 320 320 320 320 321 321 322 323 321 324 323 324 321 319 319 317 317 316 314 314 313 313 313 312 314 316 316 315 315 315 314 313 313 313 312 313 311 310 309 309 309 308 307 306 306 307 306 305 304 304 306 306 309 310 309 309 309 305 303 303 306 306
319 319 319 319 319 320 321 321 321 322 321 319 319 319 317 317 316 314 313 312 312 311 310 309 309 309 313 314 314 314 314 314 313 312 312 313 312 311 309 309 309 309 307 306 305 305 306 305 305 304 303 304 305 306 307 306 306 306 304 302 302 302 303
318 318 318 319 319 319 319 321 320 319 320 319 317 316 316 315 314 312 311 311 310 309 307 306 305 307 309 313 312 312 311 312 312 311 309 309 310 311 309 308 309 309 307 306 305 304 305 305 305 303 303 303 303 304 304 304 304 303 302 301 301 301 301
317 317 318 318 318 319 320 320 319 320 318 316 316 315 314 313 312 311 310 309 309 308 306 304 303 303 306 310 311 309 310 310 310 309 309 307 307 307 309 308 308 308 308 306 304 304 303 304 305 303 303 303 303 302 302 303 302 302 301 301 300 299 300
317 317 317 317 317 318 318 319 318 318 318 317 317 314 313 312 310 309 308 308 307 306 305 303 300 300 302 304 312 308 308 308 308 308 307 307 306 306 306 308 309 308 310 310 305 304 303 303 305 303 303 303 303 302 302 302 302 301 301 300 299 300 299
316 317 317 316 317 317 317 318 317 317 316 315 314 313 312 311 309 308 307 306 306 305 303 301 299 296 298 301 309 307 307 307 307 307 307 306 305 305 305 306 310 310 309 310 307 301 299 299 301 304 303 303 302 302 301 301 301 301 301 300 299 299 298
316 315 316 316 317 316 316 317 316 315 315 314 313 312 311 309 308 307 306 305 304 304 302 298 294 293 294 295 304 307 306 305 306 306 306 305 304 304 304 304 305 308 307 305 304 300 299 298 298 297 298 301 303 303 301 300 300 301 300 299 300 299 298
315 315 316 315 315 315 316 315 314 314 314 313 312 312 310 309 308 307 306 305 304 303 300 295 292 293 293 293 296 305 304 303 303 303 304 304 304 304 303 303 303 304 304 303 303 300 302 300 297 297 297 297 296 296 297 300 301 300 300 299 298 299 299
315 315 315 315 315 315 314 313 313 312 312 312 311 309 308 307 306 306 305 304 303 301 299 293 292 293 293 292 292 301 303 302 301 301 301 301 302 302 302 302 302 302 302 304 302 298 299 303 300 297 297 297 299 299 295 294 296 303 302 300 299 300 300
314 315 315 314 314 313 313 312 313 312 311 310 309 308 307 306 306 305 304 303 302 300 297 293 292 292 293 292 292 297 304 302 301 300 300 300 300 300 301 300 300 300 300 299 297 296 298 301 306 306 306 304 304 305 301 299 298 299 302 303 301 300 301
314 314 314 314 313 312 312 312 311 311 310 309 308 307 306 305 305 304 304 303 302 300 297 291 291 292 292 292 292 300 306 305 302 300 299 299 299 299 299 300 300 299 298 297 296 295 297 301 306 306 305 303 302 305 306 304 304 304 304 304 303 303 302
313 313 313 313 312 311 311 310 310 310 309 308 307 307 306 305 304 303 303 303 301 299 297 291 291 292 292 292 294 308 306 305 304 302 300 299 298 298 298 298 298 298 297 296 295 292 294 301 304 303 303 303 303 303 306 304 299 298 300 302 302 302 303
313 312 312 311 311 310 310 309 309 309 308 307 306 305 305 304 304 303 302 301 300 299 297 293 291 292 292 292 297 307 306 304 303 303 301 300 299 298 298 298 297 297 297 295 293 291 292 298 302 301 301 301 302 303 302 310 301 297 296 296 297 295 295
312 312 311 310 310 309 309 309 309 309 307 306 305 305 303 302 302 301 300 300 300 299 297 294 291 292 292 292 296 308 306 304 302 301 301 302 301 299 299 301 300 296 296 295 292 291 292 298 300 299 299 299 299 299 300 303 307 305 300 299 298 298 296
312 311 310 309 309 308 308 308 308 307 306 305 304 304 303 302 302 302 302 302 302 299 297 296 292 291 292 292 297 306 304 302 302 302 300 299 300 299 298 299 299 296 295 294 291 291 292 295 300 298 298 297 297 297 298 302 302 301 302 301 302 302 301
312 310 309 308 308 308 307 307 306 306 305 304 303 304 304 303 301 301 301 301 301 301 299 296 294 291 292 292 294 304 305 304 301 299 299 299 299 298 298 297 298 293 291 291 291 291 291 292 297 298 297 295 295 295 297 302 302 302 301 301 301 301 301
311 310 309 308 308 307 307 306 306 306 305 304 303 302 301 300 299 298 298 298 297 298 299 298 295 291 292 292 292 297 302 300 302 300 299 298 297 297 296 296 298 295 291 291 290 291 291 292 293 298 296 294 294 294 298 301 302 302 301 300 300 300 300
310 310 308 307 307 306 307 307 307 305 304 303 302 301 300 299 299 298 298 298 298 297 298 298 297 293 291 292 292 293 298 299 299 301 299 298 297 298 297 297 297 295 291 291 290 291 291 292 293 298 294 291 292 293 300 301 301 300 300 299 299 298 299
308 307 307 307 307 306 306 306 306 305 304 304 302 301 300 299 299 298 298 298 298 297 297 297 294 295 291 292 292 292 292 295 294 302 299 297 297 297 298 298 299 297 291 291 291 291 292 293 295 294 290 292 293 293 297 299 299 300 298 298 298 297 297
307 308 307 307 306 306 305 305 304 304 304 302 301 300 300 300 299 298 297 296 297 296 296 296 294 293 293 291 291 292 292 292 293 298 298 297 297 298 298 298 297 291 290 291 291 292 294 293 293 291 291 293 294 295 298 297 297 298 296 296 296 296 296
Wind_Speed
7 4 6 2 3 4 4 5 4 4 1 1 3 2 2 2 3 3 3 3 4 4 5 6 6 6 5 6 6 6 5 4 4 5 6 5 7 7 7 6 5 5 3 4 4 6 6 10 12 7 5 8 8 5 5 5 6 5 5 5 6 5 4
6 4 6 1 3 3 4 3 3 2 1 3 3 3 5 5 5 5 5 4 4 5 6 6 5 6 6 6 6 6 5 5 4 4 4 5 6 7 7 7 7 6 6 5 5 5 6 8 8 10 12 9 6 5 6 5 5 4 6 6 5 5 5
3 8 3 3 3 4 3 2 3 2 3 3 2 4 5 5 5 4 4 5 6 6 5 6 6 6 6 6 6 6 7 6 6 7 6 6 6 5 6 6 7 8 7 5 4 7 5 3 7 10 9 11 12 9 7 6 6 5 5 5 4 4 5
5 5 3 2 2 2 3 3 4 4 3 3 3 5 6 5 4 4 5 5 6 6 6 5 4 5 5 5 5 6 7 8 7 8 8 8 8 7 9 8 8 8 7 8 9 9 7 6 8 9 9 8 9 11 9 8 6 4 3 2 1 3 2
7 2 2 3 2 3 2 3 5 5 3 3 5 5 6 5 4 4 5 6 6 5 5 5 4 5 5 6 5 6 7 7 8 8 8 9 10 8 8 8 7 7 8 9 9 9 8 10 9 9 9 9 8 7 8 8 5 3 5 5 3 2 7
4 4 3 2 2 1 4 6 5 5 4 5 5 5 5 5 4 5 5 5 4 4 5 5 5 5 6 5 6 7 7 8 8 9 8 9 10 9 8 7 7 7 8 7 7 8 7 8 7 9 10 9 9 9 7 7 4 4 3 2 3 4 5
4 3 3 1 4 5 4 4 4 4 4 6 6 5 3 2 3 5 4 3 4 4 4 4 5 5 6 6 6 7 6 6 7 8 8 8 7 7 6 6 6 6 7 8 8 8 9 9 9 10 11 9 7 8 6 6 7 5 3 4 5 5 4
5 5 4 4 4 6 5 5 5 5 5 6 4 2 2 2 3 4 4 4 4 3 3 4 5 5 6 6 6 6 6 6 8 9 8 8 8 9 7 8 6 5 6 7 7 7 7 8 8 8 10 13 12 9 8 6 6 7 7 8 8 8 9
5 4 4 5 5 5 5 5 5 5 5 5 2 2 3 4 4 3 3 3 2 2 2 3 3 4 6 6 5 7 8 7 8 9 7 7 8 9 8 9 7 7 7 6 6 6 6 7 7 7 8 9 12 12 9 8 7 6 10 8 6 8 11
5 5 5 5 5 5 5 5 5 5 4 2 2 2 3 3 1 1 2 2 2 2 4 4 5 6 6 5 7 9 8 7 6 7 7 8 8 8 8 9 7 6 8 6 6 6 7 6 5 6 7 8 8 10 10 10 9 7 10 10 9 9 12
6 6 6 6 4 4 5 5 4 4 4 2 1 2 3 4 2 2 2 3 4 5 5 4 4 5 6 8 8 7 5 5 6 6 6 6 7 8 8 8 8 7 8 8 7 7 6 7 7 6 7 8 7 9 9 10 9 9 9 10 11 10 13
6 6 6 5 4 6 6 6 5 3 2 1 3 4 4 4 3 1 2 4 5 5 5 5 6 7 8 6 6 5 5 5 6 6 6 6 7 8 9 10 10 9 9 9 8 9 10 9 7 8 7 7 7 8 10 9 8 7 8 9 8 9 11
7 7 5 4 5 7 7 6 5 4 3 3 2 3 2 4 4 3 3 4 5 6 6 6 6 6 5 5 3 4 5 5 6 6 7 8 8 8 10 11 11 10 10 9 10 10 10 11 8 6 7 7 6 7 8 8 8 9 7 8 7 9 12
6 6 6 7 6 6 5 5 4 3 4 2 0 2 3 4 3 3 6 5 5 6 6 5 4 3 4 4 3 3 4 6 7 6 7 9 9 9 10 10 11 11 11 11 10 10 11 12 12 11 9 7 7 6 7 7 8 8 6 6 7 8 10
6 6 6 5 6 6 6 4 3 2 2 3 2 2 4 2 6 8 4 6 6 5 6 6 4 4 4 4 4 3 5 6 6 7 8 9 9 8 9 10 11 11 10 11 11 12 11 11 12 12 12 12 10 9 5 6 7 7 9 7 8 7 9
6 6 6 5 6 6 6 6 3 2 1 2 2 3 2 8 3 4 6 5 3 4 7 5 5 6 6 7 6 5 6 5 6 7 9 9 9 8 9 9 10 10 9 11 11 10 11 12 11 12 12 11 12 11 11 9 7 9 10 9 9 9 11
7 6 6 5 6 5 5 5 4 3 2 1 6 6 7 4 6 7 8 8 9 11 10 10 9 6 8 7 7 7 6 7 7 8 8 8 7 7 8 9 10 11 11 11 12 11 10 11 12 11 12 11 11 12 9 12 10 7 9 10 11 12 11
7 7 6 5 5 5 5 4 3 5 2 2 2 5 7 8 7 8 8 9 9 10 10 10 10 9 6 6 6 6 5 6 6 7 7 6 7 6 7 8 9 10 11 11 11 10 11 12 11 12 12 11 11 10 9 11 11 10 10 11 11 10 11
8 7 7 6 5 4 4 4 4 3 2 5 6 6 8 7 7 9 10 9 9 10 10 10 9 9 8 7 7 7 7 7 8 8 8 7 6 6 7 7 8 8 9 10 9 10 9 10 10 12 13 12 11 10 11 11 10 11 11 10 10 11 11
6 6 6 6 5 5 5 5 6 5 4 5 8 8 7 8 8 9 9 9 10 10 10 10 10 9 9 7 8 8 8 8 8 7 7 8 7 6 7 8 8 7 7 7 7 8 9 8 9 10 12 11 10 10 10 10 10 10 10 10 9 9 10
6 6 5 5 5 4 4 5 5 3 7 9 7 8 7 8 8 8 9 9 9 9 9 9 9 9 8 7 7 7 7 7 7 6 6 7 7 7 6 7 7 7 6 4 4 6 7 7 7 8 10 11 11 10 10 10 10 10 10 10 10 10 10
7 7 8 7 6 5 5 4 5 5 5 6 7 7 8 8 9 10 10 10 10 9 8 7 6 6 7 9 6 8 8 8 8 7 7 8 8 8 7 6 7 8 9 5 5 4 7 7 5 7 8 10 10 10 9 9 9 9 9 10 10 9 10
7 7 7 7 7 7 6 5 5 5 6 8 8 7 8 8 9 10 10 9 8 8 8 5 9 14 12 7 7 7 7 7 7 7 7 7 8 8 8 8 8 16 17 12 5 5 4 7 9 7 6 9 8 9 9 8 9 9 9 10 10 10 11
8 8 7 7 7 7 7 6 6 6 6 8 7 7 7 9 9 9 10 9 9 8 7 7 15 15 16 16 9 6 7 7 7 8 8 7 8 8 8 9 7 10 12 11 11 13 8 2 4 9 7 10 9 6 7 9 8 9 9 8 8 9 10
9 9 8 9 8 7 7 7 7 7 7 7 6 6 7 8 9 8 8 9 8 8 6 11 15 15 15 15 12 7 8 7 8 8 8 9 8 8 8 8 8 8 8 13 11 10 11 3 2 6 6 6 10 7 5 4 7 8 8 8 8 9 9
10 9 8 9 8 7 8 8 7 8 8 6 5 6 7 8 8 8 8 9 8 8 6 13 15 16 15 14 13 8 9 8 9 9 9 9 9 9 8 8 8 9 9 18 13 13 11 8 6 8 7 6 4 8 8 9 9 6 5 8 7 8 8
10 9 9 8 8 8 8 7 7 8 7 6 6 6 7 8 7 8 8 8 8 7 7 10 14 15 14 14 13 7 9 8 9 9 9 9 9 9 9 9 8 9 10 11 13 12 11 12 5 2 3 7 4 5 8 8 10 11 9 6 7 7 6
10 9 8 8 8 8 8 7 8 7 6 6 6 6 6 6 6 7 7 7 7 7 5 12 13 13 13 13 13 5 7 7 7 8 8 9 9 9 9 8 8 8 9 10 11 13 13 11 7 7 4 4 8 4 3 4 4 5 5 6 6 5 3
9 9 9 8 8 8 7 8 7 6 6 6 6 6 6 5 7 7 7 7 6 7 7 13 13 13 14 14 12 4 5 5 5 7 7 8 9 9 8 8 7 8 9 10 14 19 18 11 8 9 10 7 7 7 2 1 3 3 4 5 5 3 0
9 9 9 9 9 8 7 7 7 5 6 6 6 6 5 5 6 7 7 7 7 6 7 11 13 14 15 14 10 2 5 5 5 5 6 7 8 8 8 9 8 8 9 10 15 18 19 14 9 9 9 9 7 7 7 3 3 4 6 10 13 11 4
10 9 9 9 9 8 7 6 6 5 6 6 6 6 6 7 8 8 8 7 6 6 6 10 14 14 14 15 10 1 5 5 6 6 5 5 5 6 10 15 12 8 9 9 14 16 17 13 8 9 8 8 9 7 7 7 4 6 4 11 12 14 9
9 9 9 9 8 8 7 7 6 6 6 6 6 5 5 7 7 7 7 7 9 8 7 8 13 13 15 15 11 2 6 4 4 4 5 6 5 5 6 8 12 11 9 11 15 15 15 12 7 8 7 7 9 8 8 7 5 4 4 5 7 7 8
8 9 10 8 7 6 6 7 7 6 6 5 5 5 5 7 8 7 7 7 7 6 7 7 10 13 13 15 16 9 7 4 5 5 5 5 5 4 5 4 7 12 14 14 14 14 16 15 9 8 8 8 8 9 8 6 5 4 4 7 7 6 7
9 9 8 7 7 7 6 7 6 6 6 5 5 5 7 7 7 7 7 7 7 6 6 6 9 12 13 15 16 11 5 6 4 5 5 6 4 4 4 4 4 9 13 13 12 13 13 15 12 8 9 8 7 9 8 6 8 9 6 7 7 7 7
9 8 8 7 7 6 6 6 6 7 6 6 6 7 7 7 7 6 6 6 6 6 6 8 5 10 12 13 13 13 7 6 6 5 5 5 4 3 3 2 3 8 12 12 12 11 11 12 13 7 11 14 17 17 9 8 7 7 5 6 6 7 7
8 8 7 7 7 7 6 6 7 7 6 6 6 7 7 7 6 6 6 6 6 5 5 5 6 7 10 12 13 14 14 11 13 7 6 6 4 4 2 3 4 10 11 11 11 11 11 13 9 8 12 14 16 17 11 7 8 8 7 5 5 7 6
8 7 8 8 7 7 6 7 7 5 5 5 6 7 6 6 6 6 6 6 5 5 4 4 4 7 8 11 12 12 12 13 12 7 6 5 3 2 1 2 5 10 11 11 10 8 14 13 10 10 11 12 14 12 9 8 7 7 8 9 7 5 6
Wind_Direction
98 300 283 71 84 80 67 70 79 72 16 14 52 17 318 38 14 349 352 1 349 352 346 13 11 7 358 347 350 354 345 350 347 337 335 351 351 336 346 333 321 307 308 270 280 304 299 318 326 332 332 335 324 297 267 272 272 248 244 223 223 224 214
104 222 237 91 87 85 87 83 79 105 106 49 41 5 6 33 20 8 2 1 2 8 13 12 9 356 353 344 349 350 348 345 350 344 346 357 350 351 342 341 329 342 340 338 319 334 337 323 318 335 330 330 328 320 312 272 258 249 244 238 219 211 218
118 228 221 126 97 95 90 108 128 100 78 80 45 42 32 23 16 13 5 6 19 20 17 9 360 352 345 344 346 353 350 356 10 358 12 2 356 346 350 344 349 346 346 341 352 346 335 330 323 323 330 331 334 329 313 298 270 259 246 238 223 204 211
176 218 174 126 92 112 142 179 117 96 62 47 53 55 43 18 20 13 9 22 29 22 12 359 349 350 337 344 356 356 359 13 18 7 16 15 10 5 8 6 357 352 356 347 341 343 342 333 329 331 328 333 326 322 331 316 298 281 270 249 317 358 292
195 178 93 112 153 158 195 161 132 116 109 76 57 55 37 20 11 18 20 26 25 14 3 344 357 342 353 354 358 11 10 18 22 18 23 16 17 8 9 4 354 348 358 360 347 339 342 339 334 323 325 332 325 329 317 321 323 326 319 9 19 218 264
91 98 96 106 216 108 41 42 44 72 65 63 56 47 38 20 12 22 30 28 5 3 3 357 353 355 3 359 24 15 16 13 28 24 19 21 17 6 4 359 352 353 2 352 338 336 336 334 335 331 334 337 332 325 328 332 338 9 5 0 282 262 251
80 88 76 38 48 59 67 65 56 58 75 69 58 51 42 21 35 52 37 20 9 14 16 359 347 9 8 24 26 19 16 12 34 31 19 20 17 2 2 1 355 359 2 348 339 345 347 342 345 342 336 333 326 321 328 339 351 0 349 349 332 321 321
89 85 71 42 46 69 65 58 34 39 63 72 58 54 43 44 42 67 52 32 22 20 11 5 8 26 30 20 27 16 14 18 37 32 12 16 8 356 359 6 349 5 0 355 347 352 348 348 338 337 335 338 342 342 338 341 346 7 11 359 343 18 358
95 91 73 57 60 56 69 68 61 53 66 74 59 82 59 47 41 54 58 75 56 35 21 24 38 38 31 25 28 24 25 22 33 30 13 13 1 360 5 9 358 4 349 349 346 348 356 345 338 339 341 345 347 344 338 343 354 355 15 2 344 17 356
97 89 93 91 77 70 75 80 82 74 72 87 103 78 79 77 77 142 129 120 96 56 37 24 45 45 39 22 32 35 27 24 24 30 19 17 3 4 4 12 360 356 345 345 350 3 355 344 341 350 2 347 343 343 348 347 345 355 6 10 3 351 358
109 115 114 108 103 106 95 82 84 78 75 77 82 107 160 156 181 180 154 97 74 53 37 23 38 57 48 39 36 30 21 33 27 34 32 21 10 9 2 7 4 2 353 355 357 354 347 352 353 8 6 346 345 355 344 346 341 17 6 13 17 357 354
110 111 115 124 124 105 96 94 86 89 99 187 199 191 178 174 179 115 72 87 75 64 45 23 28 52 56 48 30 21 18 36 36 29 34 24 23 12 6 9 9 5 358 360 353 4 4 351 10 10 3 343 352 8 354 347 347 13 30 10 7 8 2
122 121 119 107 106 108 112 120 115 126 167 228 246 209 130 73 56 69 65 70 76 71 57 42 35 51 68 64 35 26 23 31 41 33 33 38 24 16 10 16 12 7 6 5 4 10 0 352 356 2 3 353 354 17 5 358 355 356 18 18 359 2 7
109 101 93 90 91 96 99 101 135 168 181 175 301 50 97 104 126 73 59 53 68 74 65 63 48 45 65 73 57 28 37 37 42 42 35 37 32 19 15 16 13 13 15 15 8 8 7 1 360 357 351 354 357 7 17 12 360 350 353 13 7 11 2
102 109 113 121 122 120 118 127 148 164 122 170 200 46 59 58 54 71 60 52 59 78 83 69 55 47 39 58 71 52 40 45 39 46 44 38 33 22 17 13 17 15 15 18 14 17 10 5 6 2 357 350 355 353 10 17 7 354 347 353 1 8 9
116 112 114 106 110 123 134 142 142 136 144 114 135 153 105 67 84 89 76 73 60 67 73 80 74 50 33 33 38 44 48 46 46 49 50 44 37 29 20 16 16 13 14 16 14 14 13 12 9 8 360 355 352 351 1 4 13 8 358 357 357 6 9
123 122 116 123 137 140 130 134 138 124 175 268 60 63 73 65 38 56 63 48 34 28 30 29 19 46 46 38 26 34 44 40 45 59 56 50 44 36 27 21 20 17 12 16 12 11 14 16 16 10 6 2 356 348 4 1 6 29 4 5 3 8 7
112 115 126 134 134 134 133 130 129 110 70 77 90 67 59 52 63 60 58 52 41 38 32 26 19 7 48 40 36 24 42 51 45 53 63 58 52 43 35 32 29 23 17 18 13 10 13 17 17 14 13 4 1 352 9 9 1 20 19 14 4 6 5
129 136 134 123 121 121 123 119 113 115 103 80 68 67 64 57 59 64 59 54 50 46 38 29 19 9 8 43 33 28 19 53 49 35 37 46 55 54 41 31 36 26 22 22 15 4 7 20 21 20 17 11 6 2 13 16 11 15 23 20 8 1 10
127 130 132 135 144 149 151 150 129 122 138 97 76 74 72 67 61 65 64 57 54 48 42 31 20 9 0 25 46 35 27 38 53 49 40 30 28 52 55 39 34 26 25 24 17 9 357 13 28 25 22 16 10 8 11 16 15 18 22 16 12 12 5
135 134 139 138 136 132 122 104 96 85 78 85 89 85 84 77 71 68 63 62 54 50 43 33 18 5 5 3 49 39 43 36 37 41 45 39 32 30 50 56 39 28 26 33 12 11 8 351 26 32 28 22 16 17 17 17 18 19 20 18 17 8 10
141 148 138 140 143 122 97 87 90 92 103 96 89 89 86 85 81 74 67 62 59 48 43 34 24 2 1 356 27 49 36 38 39 35 35 35 30 30 30 50 55 33 19 51 24 5 14 4 5 40 32 32 19 19 23 22 21 21 19 21 18 13 12
147 141 141 142 134 127 127 124 112 95 83 83 81 78 81 82 78 76 75 70 63 51 38 30 7 21 27 15 11 48 41 35 35 36 36 32 27 26 27 25 38 44 29 21 6 339 11 12 347 7 52 49 24 25 24 26 26 20 18 23 18 13 14
144 145 138 124 122 125 120 111 104 96 86 81 78 83 81 78 78 77 78 76 64 52 38 13 11 21 18 21 17 37 46 40 33 33 32 30 29 23 20 27 18 30 33 12 8 354 333 305 339 300 35 65 63 33 22 30 29 22 23 19 20 18 19
141 145 145 134 123 116 108 104 105 106 96 85 81 82 81 81 83 83 79 74 63 50 41 12 18 17 18 15 15 32 51 49 37 37 31 26 27 19 18 21 24 18 16 11 4 2 354 297 265 305 303 53 74 47 38 35 33 29 23 19 21 30 19
144 149 134 125 127 121 114 116 109 98 91 93 94 85 86 88 85 83 78 73 64 46 40 15 17 17 14 10 11 17 66 51 48 46 34 32 25 17 16 17 21 21 11 5 4 354 350 349 213 234 267 268 71 59 32 27 40 48 20 23 23 37 27
145 134 129 128 128 121 121 112 99 91 93 94 92 91 86 85 87 83 82 79 68 50 37 10 19 17 11 4 4 355 82 67 63 53 44 38 30 22 15 17 20 19 12 9 5 353 344 348 360 147 42 28 16 62 23 17 30 31 29 23 26 44 31
128 129 130 129 126 119 117 115 104 102 103 101 99 96 88 86 85 85 85 84 80 58 38 20 23 17 13 6 355 349 82 79 77 69 57 47 38 31 22 19 24 20 17 11 4 356 358 344 5 9 13 38 30 42 69 19 8 1 2 2 24 55 35
129 130 130 127 122 122 117 110 109 109 99 91 92 94 95 90 87 86 86 86 82 61 40 24 21 18 14 10 351 86 79 79 81 84 75 61 55 40 30 25 21 21 18 16 1 3 5 353 15 6 14 9 23 17 28 139 315 326 338 335 344 46 2
135 137 134 130 128 124 116 107 104 111 110 107 99 92 96 89 86 86 85 84 80 68 45 22 22 19 16 12 4 91 96 95 84 87 87 84 71 54 41 31 30 21 17 15 1 8 7 357 23 10 15 3 4 9 2 358 270 323 337 355 13 45 138
138 137 134 133 121 112 112 112 109 105 108 107 95 87 85 85 80 74 70 72 75 78 54 29 25 20 17 10 4 40 109 113 110 85 78 80 83 69 43 36 31 24 15 8 3 9 9 3 25 16 7 6 353 2 355 343 13 39 47 26 18 19 47
138 138 132 120 118 123 121 116 111 102 102 107 109 113 107 100 97 84 78 74 75 74 57 35 26 24 22 17 11 9 80 69 64 92 101 80 63 61 60 33 24 17 9 359 1 4 7 11 7 20 8 5 2 350 345 328 2 28 29 36 22 23 23
139 131 117 118 127 117 113 115 121 128 123 119 123 121 107 93 87 81 76 64 51 48 65 48 28 30 30 26 23 29 42 38 89 74 61 69 79 78 51 32 15 8 0 355 354 355 357 5 8 12 11 12 7 348 325 325 3 15 37 45 26 21 29
111 113 123 124 119 123 125 129 134 127 112 104 103 104 104 99 92 91 85 79 70 54 42 57 41 35 37 38 34 29 43 25 15 78 83 76 72 64 47 23 2 355 353 348 348 349 351 352 357 11 13 10 355 339 341 0 353 15 41 42 28 18 25
121 125 127 129 132 125 126 124 106 98 102 114 128 127 120 106 99 96 94 85 85 79 51 47 59 43 46 48 46 45 40 32 19 87 67 81 70 62 51 14 359 342 344 343 341 347 349 351 351 18 358 3 6 4 6 3 1 6 34 51 33 29 25
124 136 131 129 127 126 121 111 104 109 128 140 132 123 113 120 123 116 108 98 93 88 83 63 53 66 57 58 51 49 46 40 31 55 65 65 56 53 19 346 330 331 333 333 341 342 11 12 2 4 360 16 15 7 5 12 8 13 11 21 36 41 24
137 128 129 129 129 124 112 109 114 127 141 142 141 133 131 129 126 123 118 113 105 98 92 101 73 91 82 72 70 63 54 52 51 63 67 75 69 54 326 302 304 314 320 324 335 345 19 14 16 1 14 28 29 15 13 11 13 17 14 8 15 33 26